Погода в Маже

Бразилия     22°39′17″S   43°02′18″W
темп.,
°C
ветер,
м/с
пор.,
м/с
влажн.,
%
обл.,
%
осадки,
мм/ч
давл.,
гПа
погр.,
м
27 февраля, сб
сб2700:00+23ю0188100 5.1 1015182
03:00+23в1290100 7.9 1014240
06:00+22всв1286100 0.3 1014192
09:00+25вюв1273100 0.4 1016416
12:00+30юв1256100 0.0 1016910
15:00+31вюв1257100 0.4 10141142
18:00+28всв126880 0.2 1013576
21:00+25всв138090 0.4 1015209
28 февраля, вс
вс2800:00+24всв2384100 0.0 1015175
03:00+23всв2382100 0.0 1013184
06:00+23всв1280100 0.0 1014132
09:00+27св126399 0.0 1015445
12:00+33юв1143100 0.0 1015925
15:00+33всв1247100 0.1 10121343
18:00+27в3773100 0.2 1012377
21:00+25всв358090 0.3 1014273
1 марта, пн
пн100:00+23св248160 0.0 1014190
03:00+23св228151 0.0 1013124
06:00+22св12799 0.0 1013112
09:00+28ссв125743 0.0 1014431
12:00+33вюв124422 0.0 1014949
15:00+34вюв234243 0.0 10111540
18:00+29в376824 0.4 1011426
21:00+25всв257854 0.4 1014210
2 марта, вт
вт200:00+24св247794 0.0 1014149
03:00+23св238056 0.0 1013105
06:00+23св2275100 0.0 1014110
09:00+28св125762 0.0 1015392
12:00+34юв114389 0.0 1014973
15:00+35юв124078 0.0 10121505
18:00+30всв236496 0.4 1012442
21:00+27ссв237298 0.4 1015197
3 марта, ср
ср300:00+25св237681 0.0 1015114
03:00+24ссв127352 0.0 1014101
06:00+24ссв1172100 0.0 101583
09:00+29с0156100 0.0 1016388
12:00+34вюв1141100 0.0 10151017
15:00+33ю544676 0.4 10141180
18:00+26ююз137697 5.4 1014327
21:00+25в127898 10.4 1016163